Temperature
19 19 19 19 19 18 18 18 18 18 17 17 17 17 17 16 16 16 16 16 16 16 16 16 16 15 15 15 15 15 15 15 15 15 15 15 15 15 15 15 15 15 15
19 19 19 19 19 18 18 18 17 17 17 17 17 17 17 17 16 16 16 16 16 16 15 15 15 15 15 15 15 15 15 15 15 14 14 14 14 14 14 14 14 14 14
19 19 19 19 19 18 18 18 17 17 17 17 17 17 16 16 16 16 16 16 15 15 15 15 15 15 15 15 15 14 14 14 14 14 14 14 14 14 14 14 14 14 14
19 19 19 19 18 18 18 18 17 17 17 17 16 16 16 16 16 16 16 16 15 15 15 15 15 15 14 14 14 14 14 14 14 14 14 14 14 14 14 14 14 14 14
19 19 18 18 18 18 18 17 17 17 16 16 16 16 16 16 16 16 15 15 15 15 15 15 14 14 14 14 14 14 14 13 13 13 13 13 13 13 13 13 13 13 13
18 18 18 18 18 18 17 17 17 17 16 16 16 16 16 15 15 15 15 15 15 15 14 14 14 14 14 14 13 13 13 13 13 13 13 13 13 13 13 12 12 13 13
18 18 18 17 17 17 17 17 16 16 16 16 16 16 15 15 15 15 15 15 14 14 14 14 14 13 13 13 13 13 13 13 13 13 13 12 12 12 12 12 12 12 12
19 18 18 17 17 17 17 16 16 16 16 16 16 15 15 15 15 15 14 14 14 14 14 14 14 13 13 13 13 13 13 13 12 12 12 12 12 12 12 12 12 12 12
18 18 17 17 17 17 16 16 16 16 16 16 15 15 15 15 15 14 14 14 14 14 14 14 13 13 13 13 13 13 12 12 12 12 12 12 11 11 11 11 11 11 11
17 17 17 17 17 16 16 16 16 16 16 15 15 15 15 15 14 14 14 14 14 14 13 13 13 13 13 13 13 12 12 12 12 12 11 11 11 11 11 11 11 11 11
17 17 17 17 16 16 16 16 16 15 15 15 15 15 15 14 14 14 14 14 14 14 13 13 13 13 13 13 12 12 12 12 12 11 11 11 11 11 11 11 11 11 11
17 17 17 16 16 16 15 15 15 15 15 15 15 15 14 14 14 14 14 14 13 13 13 13 13 13 13 12 12 12 12 12 12 11 11 11 11 11 11 11 11 11 11
16 16 16 16 15 15 15 15 15 15 15 15 14 14 14 14 14 14 14 14 13 13 13 13 13 12 12 12 12 12 12 12 12 11 11 11 11 11 11 11 11 11 11
16 15 15 15 15 15 15 15 14 14 14 14 14 14 14 14 14 14 14 13 13 13 13 13 13 12 12 12 12 12 12 12 11 11 11 11 11 11 11 11 10 10 10
15 15 15 14 14 14 14 14 14 14 14 14 14 14 14 14 14 14 13 13 13 13 13 12 12 12 12 12 12 11 11 11 11 11 11 11 11 11 10 10 10 10 10
15 14 14 14 14 14 14 14 14 14 14 14 14 14 14 14 13 13 13 13 13 13 12 12 12 12 12 11 11 11 11 11 11 11 11 10 10 10 10 10 10 10 10
14 14 14 14 13 13 13 13 13 13 13 13 13 13 13 13 13 13 13 12 12 12 12 12 12 12 11 11 11 11 11 11 11 11 11 10 10 10 10 10 9 9 9
14 14 13 13 13 13 13 13 13 13 13 13 13 13 13 13 13 13 12 12 12 12 12 12 11 11 11 11 11 11 11 11 10 10 10 10 10 10 10 9 9 9 9
14 13 13 13 13 13 13 13 13 13 13 13 13 13 13 13 12 12 12 12 12 12 12 11 11 11 11 11 11 11 10 10 10 10 10 10 10 9 9 9 9 9 9
13 13 13 13 13 13 13 13 12 12 12 12 12 13 12 12 12 12 12 12 12 12 11 11 11 11 11 11 11 10 10 10 10 10 10 10 9 9 9 9 9 9 8
13 13 13 13 12 13 12 12 12 12 12 12 12 12 12 12 12 12 11 11 11 11 11 11 11 11 11 10 10 10 10 10 10 10 10 9 9 9 9 9 9 8 8
12 12 12 12 12 12 12 12 12 12 12 12 12 12 12 12 11 11 11 11 11 11 11 11 11 10 10 10 10 10 10 10 9 9 9 9 9 9 9 9 8 8 8
12 12 12 12 12 12 12 12 12 12 12 12 12 12 12 11 11 11 11 11 11 11 10 10 10 10 10 10 10 10 9 9 9 9 9 9 9 9 9 8 8 8 8
12 12 12 11 11 12 12 12 12 11 11 11 11 11 11 11 11 11 11 11 11 10 10 10 10 10 10 10 10 9 9 9 9 9 9 9 9 9 8 8 8 8 8
11 11 11 11 11 11 11 11 11 11 11 11 11 11 11 11 11 11 11 10 10 10 10 10 10 10 10 10 10 9 9 9 9 9 9 9 9 8 8 8 8 8 8
11 11 11 11 11 11 11 11 11 11 11 11 11 11 11 11 10 10 10 10 10 10 10 10 10 10 10 9 9 9 9 9 9 9 9 9 8 8 8 8 8 7 7
Wind_Speed
4 3 4 4 4 4 3 3 3 3 3 3 2 2 2 2 2 2 1 1 1 0 0 1 0 0 0 0 0 1 1 1 2 2 1 2 2 3 3 3 3 2 3
4 4 3 4 4 3 3 3 2 3 3 3 3 2 1 1 1 2 2 1 2 1 0 1 0 0 1 0 0 0 0 1 2 2 2 2 2 2 3 3 3 2 2
4 4 3 4 4 4 3 3 2 2 2 2 2 2 2 2 2 2 2 2 1 1 1 1 1 1 0 0 1 0 0 0 1 1 1 1 1 2 3 3 3 3 3
4 4 3 3 4 4 3 3 3 3 3 3 3 3 3 2 2 2 2 1 1 1 1 1 1 2 2 1 1 1 1 1 1 1 0 1 1 2 1 2 3 3 3
4 3 3 2 3 3 3 3 3 3 3 3 3 2 2 2 2 2 3 2 2 1 1 1 1 1 2 2 2 2 2 1 1 1 0 1 1 1 1 2 2 2 2
4 3 2 2 2 3 3 3 3 3 2 2 3 3 3 3 3 4 4 2 2 2 1 1 1 1 1 2 2 3 4 3 2 1 1 1 2 2 1 1 1 1 2
4 3 3 3 3 2 3 3 3 3 3 3 3 4 4 4 4 4 4 3 3 2 2 2 2 1 1 1 1 1 1 2 4 3 3 3 3 3 2 2 2 1 2
3 2 2 3 3 3 2 4 4 4 3 4 4 4 4 4 5 6 5 4 3 3 4 4 3 3 3 3 2 1 1 2 3 3 4 4 4 3 3 3 3 2 2
3 3 3 3 3 3 4 4 4 4 4 3 3 4 5 5 5 6 5 3 3 4 4 4 4 4 5 5 3 2 2 3 2 3 3 3 3 3 3 1 1 0 1
4 3 3 3 3 3 4 4 3 4 4 4 4 4 5 5 5 6 6 4 4 4 3 4 5 5 5 6 5 4 4 3 2 2 2 2 2 2 3 3 3 2 1
3 2 2 2 3 3 2 2 3 3 3 3 4 4 4 5 6 6 7 5 5 5 4 4 4 5 6 6 6 5 6 4 2 2 2 2 2 1 2 3 3 3 3
2 2 2 2 2 1 2 1 1 2 3 3 3 4 4 4 5 6 7 8 7 6 5 5 4 5 6 6 5 6 5 3 2 2 2 3 3 3 3 3 3 4 4
1 2 2 2 1 2 2 2 1 2 3 3 3 4 4 4 4 6 7 7 8 6 5 6 5 5 5 4 5 5 4 3 3 3 4 4 4 4 2 2 2 2 3
2 2 2 2 2 2 2 3 2 3 4 4 4 4 4 4 4 3 3 4 4 4 3 3 3 3 3 3 3 3 3 4 4 4 4 4 2 2 2 2 1 1 1
3 3 2 2 2 3 3 3 4 5 6 5 5 5 5 5 5 6 5 4 4 4 2 1 1 1 1 2 2 2 3 3 4 4 3 3 3 3 2 2 2 2 2
3 3 3 2 2 2 3 3 5 5 6 6 7 6 6 7 6 6 6 6 6 7 4 3 3 3 4 4 4 4 3 4 4 4 4 4 4 4 3 2 2 2 2
3 3 3 3 2 3 2 3 3 4 4 5 6 6 6 6 6 6 6 5 5 7 3 4 4 5 5 5 5 4 4 4 4 4 4 4 4 4 3 3 3 2 3
3 3 3 3 3 3 3 3 3 3 3 3 4 4 5 4 4 4 5 5 2 3 4 4 5 5 5 5 5 5 4 4 4 4 4 4 4 4 3 4 3 4 3
2 2 3 3 3 3 2 2 3 3 4 4 3 2 2 2 2 2 5 3 4 4 5 5 5 5 5 5 5 4 4 4 4 4 4 4 4 4 4 4 4 4 4
2 2 3 3 3 3 3 3 3 3 3 4 4 3 1 1 1 2 3 3 4 4 4 4 4 4 4 4 4 4 4 4 4 4 4 4 4 4 4 4 4 4 4
2 2 3 3 3 3 3 4 4 3 4 4 4 4 4 3 4 4 4 4 5 5 4 4 4 4 4 4 4 4 4 4 4 4 4 4 3 3 4 4 4 4 4
2 2 2 3 3 3 3 3 3 4 5 5 4 3 5 4 4 4 4 5 5 4 4 4 4 4 4 4 4 4 4 4 4 4 4 4 3 4 4 4 4 4 4
2 2 2 2 2 3 3 3 3 4 4 4 4 3 3 3 3 4 4 4 4 4 4 4 4 4 4 4 4 4 5 5 5 5 5 4 4 4 4 4 5 5 4
2 2 2 2 2 2 3 3 3 3 4 3 3 3 3 3 3 4 4 4 4 4 4 4 4 5 5 4 4 5 6 6 6 5 6 5 5 5 4 4 5 5 5
2 2 2 2 3 3 3 3 3 4 3 3 3 3 3 3 3 3 3 3 3 4 4 4 3 4 5 5 5 5 6 6 6 5 4 5 5 5 5 5 4 4 5
2 2 2 2 2 2 2 3 3 3 3 3 3 3 3 3 3 3 3 2 3 3 4 4 4 5 5 5 5 5 5 5 5 5 4 4 5 5 5 4 5 5 5
Wind_Direction
171 168 164 167 168 163 171 186 187 176 164 167 165 150 147 151 142 131 139 135 125 67 28 129 117 227 135 107 134 139 157 177 216 273 295 329 344 351 350 356 356 345 351
168 159 160 160 158 167 181 187 179 171 169 168 163 159 166 160 168 169 188 181 169 178 201 133 176 151 99 101 110 91 167 192 192 239 285 316 325 335 334 340 354 2 3
154 152 146 162 169 179 186 179 178 182 179 176 172 180 193 194 195 198 187 191 188 201 208 196 211 153 140 136 120 94 27 116 155 194 265 327 322 337 337 342 358 355 358
152 155 159 182 186 181 175 176 181 184 186 186 186 196 202 201 203 204 186 181 189 219 218 206 203 188 192 191 174 171 139 118 114 144 257 320 304 318 342 333 340 347 343
154 165 185 189 187 170 167 181 178 181 190 189 188 199 209 207 212 198 192 188 188 207 235 228 211 198 191 183 172 174 154 143 147 166 248 314 313 324 319 308 309 323 332
165 179 182 170 170 182 181 183 178 180 182 181 199 206 213 223 215 199 186 188 195 202 226 255 254 223 203 181 175 172 164 169 183 187 224 246 267 266 281 297 298 321 311
164 171 177 182 192 202 201 185 193 198 189 196 212 214 222 228 211 204 195 187 197 214 221 233 246 242 214 193 164 141 188 192 188 193 212 236 246 242 241 259 257 260 262
171 175 174 188 208 208 202 210 210 208 206 212 218 220 224 231 209 201 197 194 206 225 228 225 223 233 222 192 183 201 249 249 238 224 223 239 247 236 223 232 243 260 288
191 196 199 200 209 214 219 232 220 209 217 221 221 223 224 236 216 203 193 193 215 236 237 230 221 225 220 195 183 206 260 277 263 229 232 249 255 231 192 174 188 203 286
209 209 207 203 206 221 228 240 225 205 215 218 228 230 225 231 226 211 195 198 217 236 244 240 230 223 218 198 196 204 233 256 264 286 294 296 281 256 193 202 205 207 229
199 198 202 202 209 224 228 242 221 204 208 217 237 248 237 234 233 224 208 206 217 227 235 239 235 223 222 213 209 217 228 231 240 251 274 282 280 265 241 225 215 209 212
186 204 218 222 219 219 211 237 229 201 211 229 243 261 257 243 236 232 221 217 214 218 232 237 238 227 226 225 223 226 227 222 228 244 262 268 265 263 259 244 233 232 232
206 233 243 245 229 205 202 211 230 218 214 233 236 248 263 261 249 237 229 222 213 217 233 236 240 236 232 230 228 226 228 220 219 233 247 255 254 252 252 249 238 244 253
214 234 240 244 261 255 233 216 219 234 225 228 234 243 255 259 253 234 222 216 210 214 232 233 221 212 221 231 239 240 233 227 223 233 245 253 254 246 235 227 224 224 246
221 229 236 237 246 259 260 246 236 239 221 220 233 234 236 250 245 219 209 213 207 198 186 208 216 229 242 256 257 250 238 232 233 235 239 244 247 243 241 228 211 205 225
209 225 227 230 241 254 265 290 272 253 244 232 232 231 236 238 241 230 221 210 198 174 168 207 225 230 236 242 246 249 244 240 239 235 236 237 240 237 236 226 218 214 227
206 219 224 226 232 244 245 252 281 300 282 260 251 242 237 238 230 221 211 194 179 166 186 216 226 233 241 242 241 242 243 243 237 232 235 239 239 235 231 227 219 221 232
215 224 226 225 230 243 247 249 251 265 285 289 278 256 243 228 221 213 188 158 171 187 214 225 233 238 243 245 244 243 244 244 235 236 241 242 235 231 226 226 225 228 236
220 227 230 229 228 234 246 251 258 260 266 276 285 296 271 206 174 176 168 187 207 217 221 228 234 237 242 246 248 242 240 240 238 234 236 235 233 229 231 233 230 225 229
249 245 249 243 236 230 231 235 240 247 262 270 264 257 234 155 180 196 201 217 222 228 231 235 239 242 243 247 248 244 244 245 240 236 237 235 231 228 232 234 231 228 232
259 261 255 250 241 236 233 234 239 243 249 260 264 248 212 213 223 220 221 226 227 234 238 238 239 241 244 248 247 242 241 243 238 235 237 237 232 230 233 232 230 231 235
245 252 254 248 244 238 239 239 239 244 251 258 268 259 219 223 232 234 236 239 238 236 234 230 236 236 236 232 231 237 244 247 243 238 238 239 239 239 235 231 233 233 234
242 253 265 262 249 244 251 253 247 248 254 259 261 256 242 237 236 237 240 243 242 245 244 237 241 247 242 234 232 232 239 245 243 236 233 238 242 244 239 234 234 235 237
245 251 258 263 259 250 252 258 256 256 257 257 256 250 248 244 246 248 246 242 242 251 251 245 244 247 244 243 245 242 243 245 242 237 231 236 242 246 240 236 235 234 234
251 256 259 259 258 256 255 261 267 269 267 260 258 260 260 254 256 263 264 253 248 252 256 254 249 246 249 251 256 257 253 247 244 239 230 230 236 238 237 238 241 239 236
256 258 259 259 257 256 254 260 269 272 271 272 268 265 264 262 259 259 261 261 260 259 259 256 254 252 251 251 256 261 255 249 243 233 228 229 231 237 237 239 241 237 241
Height
1505 1506 1508 1509 1511 1512 1513 1514 1515 1515 1516 1517 1518 1518 1518 1518 1518 1518 1518 1518 1518 1518 1518 1518 1517 1517 1517 1516 1516 1516 1515 1515 1514 1514 1514 1514 1513 1513 1512 1512 1511 1510 1509
1504 1505 1506 1508 1509 1510 1511 1512 1513 1514 1515 1515 1516 1516 1516 1516 1516 1516 1516 1516 1516 1516 1516 1516 1515 1515 1515 1514 1514 1513 1513 1513 1512 1511 1511 1511 1511 1510 1510 1510 1509 1508 1507
1503 1504 1505 1506 1507 1508 1510 1510 1511 1512 1512 1513 1514 1514 1514 1514 1514 1515 1515 1515 1514 1514 1514 1513 1513 1513 1512 1512 1512 1511 1511 1511 1510 1510 1509 1509 1508 1508 1507 1507 1507 1506 1505
1502 1503 1503 1504 1505 1507 1508 1509 1509 1510 1510 1510 1511 1512 1512 1512 1512 1512 1512 1513 1512 1512 1512 1511 1511 1511 1510 1510 1510 1509 1509 1508 1508 1508 1507 1506 1506 1505 1505 1504 1504 1503 1503
1500 1501 1502 1502 1504 1505 1505 1506 1506 1507 1508 1508 1509 1509 1510 1510 1510 1510 1510 1510 1510 1510 1510 1509 1509 1509 1508 1508 1508 1507 1507 1506 1506 1505 1505 1504 1503 1503 1502 1502 1501 1501 1500
1498 1499 1500 1501 1501 1502 1503 1503 1504 1504 1505 1506 1506 1507 1507 1507 1507 1507 1507 1507 1507 1507 1507 1507 1507 1507 1506 1506 1506 1505 1505 1504 1504 1503 1502 1502 1501 1501 1501 1500 1499 1499 1498
1495 1496 1497 1498 1499 1499 1500 1501 1501 1502 1502 1502 1503 1503 1503 1503 1504 1504 1504 1504 1504 1504 1505 1505 1504 1504 1504 1504 1504 1503 1503 1502 1502 1502 1501 1500 1500 1499 1499 1498 1498 1497 1496
1493 1494 1495 1496 1496 1496 1497 1498 1498 1499 1499 1499 1499 1499 1499 1500 1500 1501 1501 1501 1501 1501 1502 1502 1502 1502 1502 1502 1501 1501 1500 1500 1500 1499 1499 1498 1498 1497 1497 1496 1496 1495 1495
1490 1491 1492 1493 1493 1493 1494 1495 1495 1495 1496 1496 1496 1496 1496 1496 1497 1498 1498 1498 1498 1498 1499 1499 1499 1499 1499 1499 1499 1498 1498 1498 1497 1497 1497 1496 1496 1495 1494 1493 1493 1492 1491
1487 1488 1490 1490 1491 1491 1491 1492 1492 1492 1492 1492 1492 1493 1493 1492 1493 1494 1494 1494 1495 1495 1495 1496 1496 1496 1496 1496 1496 1495 1495 1495 1495 1494 1494 1494 1493 1492 1491 1490 1490 1490 1489
1485 1486 1486 1487 1488 1488 1489 1489 1489 1489 1489 1489 1489 1489 1489 1489 1489 1490 1491 1491 1491 1492 1492 1492 1492 1493 1493 1492 1492 1492 1492 1492 1492 1491 1491 1490 1490 1489 1488 1487 1487 1487 1487
1482 1483 1483 1484 1485 1485 1486 1486 1485 1485 1486 1486 1486 1485 1486 1486 1486 1486 1487 1487 1488 1488 1488 1488 1488 1489 1489 1489 1489 1489 1489 1489 1488 1488 1487 1487 1486 1486 1485 1485 1484 1484 1484
1480 1480 1481 1481 1482 1482 1482 1482 1482 1482 1482 1482 1482 1482 1482 1482 1482 1483 1483 1483 1484 1484 1484 1485 1485 1485 1485 1485 1485 1485 1485 1485 1484 1484 1484 1483 1483 1483 1482 1482 1481 1481 1481
1478 1478 1478 1478 1478 1479 1479 1478 1477 1478 1478 1478 1478 1478 1478 1478 1479 1479 1479 1479 1480 1480 1480 1481 1481 1480 1481 1481 1481 1481 1481 1481 1480 1480 1480 1480 1479 1479 1478 1478 1477 1477 1477
1474 1474 1475 1475 1475 1475 1475 1474 1475 1476 1474 1475 1475 1474 1474 1474 1475 1475 1475 1475 1475 1476 1476 1476 1476 1476 1476 1477 1477 1477 1477 1476 1476 1476 1476 1475 1475 1474 1474 1474 1473 1473 1473
1470 1471 1471 1472 1472 1472 1471 1470 1471 1471 1471 1471 1471 1471 1471 1471 1471 1471 1471 1472 1472 1472 1472 1472 1472 1472 1472 1472 1472 1472 1472 1472 1472 1472 1471 1471 1471 1470 1469 1469 1469 1469 1468
1466 1467 1468 1468 1468 1468 1467 1467 1467 1467 1467 1467 1467 1467 1467 1467 1467 1467 1467 1468 1468 1468 1468 1468 1468 1468 1468 1468 1467 1467 1467 1467 1467 1467 1467 1466 1466 1465 1465 1464 1464 1464 1464
1462 1464 1464 1464 1464 1464 1464 1464 1464 1463 1463 1463 1464 1464 1463 1463 1463 1463 1463 1463 1463 1463 1463 1463 1464 1464 1464 1463 1463 1463 1463 1462 1462 1463 1462 1462 1461 1461 1460 1460 1460 1460 1460
1459 1459 1460 1460 1460 1460 1461 1462 1461 1461 1460 1460 1460 1460 1460 1459 1459 1459 1458 1458 1458 1458 1459 1459 1459 1459 1459 1459 1459 1458 1458 1458 1458 1458 1457 1457 1457 1456 1456 1456 1456 1456 1456
1457 1456 1457 1457 1457 1457 1458 1458 1458 1458 1457 1456 1456 1456 1455 1455 1454 1454 1454 1454 1454 1454 1454 1454 1454 1455 1455 1455 1455 1454 1454 1453 1453 1453 1453 1453 1452 1452 1452 1452 1452 1452 1452
1454 1454 1454 1454 1454 1454 1454 1454 1454 1453 1453 1453 1453 1452 1452 1451 1450 1450 1450 1450 1450 1451 1450 1450 1450 1451 1451 1451 1450 1450 1449 1449 1449 1449 1448 1449 1448 1448 1448 1448 1448 1448 1448
1451 1451 1451 1451 1451 1451 1451 1451 1451 1450 1450 1450 1449 1449 1448 1447 1447 1446 1446 1446 1446 1447 1447 1446 1446 1446 1446 1446 1446 1446 1445 1445 1445 1445 1445 1445 1445 1445 1444 1444 1444 1444 1444
1448 1448 1447 1447 1448 1447 1447 1447 1447 1447 1446 1446 1445 1445 1444 1443 1443 1443 1442 1442 1442 1442 1442 1442 1442 1442 1442 1442 1442 1441 1441 1441 1441 1441 1441 1441 1441 1441 1440 1440 1440 1440 1439
1445 1445 1444 1444 1444 1444 1444 1444 1443 1443 1443 1442 1441 1441 1440 1440 1439 1439 1438 1438 1438 1438 1438 1438 1438 1438 1438 1437 1438 1438 1437 1437 1437 1438 1438 1438 1437 1437 1436 1436 1435 1435 1435
1442 1442 1441 1441 1441 1441 1441 1440 1440 1439 1439 1438 1438 1437 1437 1436 1435 1435 1435 1435 1435 1435 1435 1434 1434 1433 1433 1433 1433 1433 1434 1434 1434 1433 1433 1433 1433 1433 1432 1432 1431 1431 1431
1439 1439 1438 1438 1438 1438 1437 1437 1436 1436 1435 1434 1434 1434 1433 1432 1432 1431 1431 1431 1431 1430 1430 1430 1429 1429 1429 1429 1429 1429 1429 1430 1429 1429 1429 1429 1429 1428 1428 1427 1427 1427 1428